Location: Leuk
(46.3174°N, 7.6341°E)
Time: 17:55:33
(UTC+00:00)

BREEZE M DEB (TANK) - Pass Details

Date: 09 March 2021
Orbit: 275 x 14501 km, 49.5° (Epoch: 14 April)

Event Time Altitude Azimuth Distance (km) Brightness Sun altitude
Exits shadow 04:56:01 14° 291° (WNW) 1,288 3.7 -10.8°
Maximum altitude 04:58:25 89° 199° (SSW) 641 2.6 -10.4°
Drops below altitude 10° 05:06:28 10° 113° (ESE) 4,115 7.9 -9.0°
Sets 05:12:51 0° 114° (ESE) 6,840 9.2 -7.9°
